Temperature
-10 -10 -10 -10 -10 -9 -9 -8 -8 -7 -7 -7 -6 -6 -5 -4 -3 -2 -1 0 1 2 3 3 4 4 5 6 6 7 7 7 7 7 7 8 8 8 8 7 7 7 8
-10 -10 -10 -10 -10 -10 -9 -9 -9 -8 -7 -7 -7 -6 -5 -5 -4 -3 -1 -1 0 1 1 2 3 3 3 4 5 6 6 6 6 6 6 7 7 7 7 7 7 7 7
-11 -11 -11 -11 -11 -11 -10 -10 -9 -9 -8 -7 -7 -6 -6 -5 -5 -4 -3 -2 -1 -0 -0 0 1 1 2 3 4 4 5 5 6 6 6 6 6 7 7 6 6 6 6
-12 -11 -11 -12 -12 -11 -11 -11 -10 -10 -9 -8 -8 -7 -6 -6 -6 -5 -5 -4 -3 -2 -2 -1 -1 -0 0 1 2 3 3 4 4 5 5 5 5 6 6 6 6 6 6
-12 -12 -12 -12 -13 -12 -12 -11 -11 -10 -9 -9 -8 -7 -7 -6 -6 -6 -6 -5 -5 -4 -3 -3 -2 -1 -1 -0 0 1 1 2 2 3 3 4 4 5 5 6 6 6 6
-13 -13 -13 -13 -13 -13 -13 -12 -12 -11 -10 -10 -9 -8 -7 -7 -7 -7 -8 -7 -6 -6 -5 -5 -4 -3 -2 -1 -1 -1 -0 1 1 1 2 3 3 4 4 5 5 5 5
-13 -14 -14 -14 -14 -14 -14 -13 -13 -12 -11 -11 -10 -9 -8 -8 -8 -8 -9 -8 -8 -8 -7 -6 -6 -5 -3 -3 -2 -2 -2 -1 -0 0 1 1 2 2 3 3 3 4 4
-14 -14 -14 -14 -14 -14 -14 -14 -13 -13 -12 -12 -11 -10 -9 -9 -8 -8 -9 -9 -9 -9 -9 -8 -8 -7 -6 -5 -5 -4 -4 -3 -2 -2 -1 -1 -0 0 1 2 2 2 3
-14 -14 -14 -15 -14 -15 -15 -14 -14 -13 -13 -13 -12 -12 -11 -10 -9 -9 -9 -9 -9 -9 -9 -9 -8 -8 -8 -7 -6 -6 -5 -5 -5 -4 -4 -3 -3 -2 -1 -0 1 1 2
-14 -14 -14 -15 -15 -15 -15 -15 -14 -14 -14 -13 -13 -12 -12 -11 -10 -10 -9 -9 -9 -9 -9 -9 -9 -9 -9 -8 -8 -7 -7 -7 -6 -6 -5 -5 -5 -4 -3 -2 -2 -1 -0
-14 -14 -14 -14 -15 -15 -15 -15 -14 -14 -14 -14 -13 -13 -12 -12 -11 -11 -10 -10 -10 -10 -10 -10 -9 -9 -10 -10 -9 -9 -9 -8 -8 -8 -7 -7 -7 -6 -5 -4 -4 -3 -3
-14 -14 -14 -14 -15 -15 -15 -15 -14 -15 -15 -15 -14 -14 -13 -12 -12 -11 -11 -10 -10 -10 -10 -10 -10 -10 -10 -11 -10 -10 -10 -10 -9 -9 -9 -8 -8 -8 -7 -6 -6 -5 -5
-14 -14 -14 -14 -14 -15 -15 -15 -15 -15 -15 -15 -15 -15 -14 -13 -12 -11 -11 -11 -11 -11 -10 -10 -11 -11 -11 -11 -11 -11 -10 -10 -10 -10 -10 -9 -9 -9 -8 -8 -8 -7 -7
-14 -14 -14 -14 -14 -14 -14 -15 -15 -15 -15 -15 -15 -15 -14 -13 -13 -12 -12 -11 -11 -11 -11 -11 -11 -12 -12 -12 -12 -12 -11 -11 -11 -11 -11 -11 -10 -10 -10 -9 -9 -9 -8
-14 -13 -13 -13 -14 -14 -14 -14 -15 -15 -15 -15 -15 -15 -14 -14 -13 -12 -12 -12 -12 -11 -11 -12 -12 -12 -12 -13 -13 -13 -13 -12 -12 -12 -12 -12 -11 -11 -10 -10 -10 -9 -9
-13 -13 -13 -14 -14 -15 -15 -15 -15 -15 -15 -15 -15 -15 -14 -14 -13 -14 -14 -13 -13 -13 -13 -13 -13 -13 -14 -14 -14 -14 -14 -14 -14 -14 -13 -13 -12 -12 -12 -11 -11 -10 -10
-13 -13 -14 -15 -15 -15 -16 -15 -15 -15 -15 -15 -15 -15 -15 -14 -14 -14 -15 -15 -15 -14 -14 -14 -14 -14 -15 -15 -15 -15 -15 -15 -15 -15 -15 -14 -14 -14 -13 -13 -12 -12 -12
-12 -12 -14 -14 -15 -15 -15 -15 -15 -15 -15 -15 -15 -15 -15 -15 -15 -15 -15 -15 -15 -15 -15 -15 -15 -15 -15 -15 -16 -16 -16 -16 -16 -16 -16 -16 -15 -15 -15 -14 -14 -13 -13
-12 -12 -14 -14 -14 -14 -15 -15 -15 -15 -16 -16 -15 -15 -15 -15 -15 -15 -15 -15 -15 -15 -15 -15 -15 -16 -16 -16 -16 -16 -16 -16 -16 -16 -16 -16 -16 -16 -16 -15 -15 -15 -14
-12 -13 -13 -14 -14 -14 -14 -14 -15 -15 -15 -16 -16 -16 -15 -15 -15 -15 -15 -15 -15 -15 -15 -15 -15 -15 -16 -16 -16 -16 -16 -16 -16 -16 -16 -16 -16 -16 -16 -16 -15 -15 -15
-12 -12 -12 -12 -14 -14 -14 -14 -14 -14 -15 -15 -16 -16 -16 -15 -15 -15 -15 -15 -15 -15 -15 -15 -15 -15 -15 -16 -16 -16 -16 -16 -16 -16 -16 -16 -16 -16 -16 -16 -15 -15 -15
-11 -11 -12 -13 -14 -14 -14 -14 -14 -14 -14 -15 -16 -16 -16 -16 -15 -15 -15 -15 -15 -15 -15 -15 -15 -15 -15 -15 -16 -16 -16 -16 -16 -16 -16 -16 -16 -16 -16 -16 -15 -15 -15
-11 -11 -12 -13 -13 -14 -14 -14 -14 -14 -15 -15 -15 -16 -16 -16 -16 -15 -15 -15 -15 -15 -15 -15 -15 -15 -15 -15 -15 -16 -16 -16 -16 -16 -15 -15 -15 -15 -15 -15 -15 -15 -15
-10 -11 -13 -13 -13 -12 -13 -13 -14 -14 -14 -15 -15 -16 -16 -16 -16 -15 -15 -15 -15 -15 -15 -15 -15 -15 -15 -15 -15 -15 -15 -15 -15 -15 -15 -15 -14 -14 -15 -15 -15 -14 -14
-10 -11 -12 -13 -13 -12 -12 -13 -14 -14 -14 -15 -15 -16 -16 -16 -15 -15 -15 -15 -15 -15 -15 -15 -15 -15 -15 -14 -14 -14 -14 -14 -14 -14 -14 -14 -14 -14 -14 -14 -14 -14 -14
-10 -11 -12 -13 -12 -12 -12 -12 -13 -13 -14 -15 -15 -15 -15 -15 -15 -15 -15 -15 -15 -15 -15 -15 -15 -15 -14 -14 -14 -14 -14 -14 -14 -14 -14 -14 -15 -15 -15 -15 -15 -15 -15
Wind_Speed
19 18 18 17 18 18 17 18 19 19 20 20 20 21 20 19 19 16 13 10 8 4 3 3 3 3 4 4 5 5 4 4 4 2 1 1 3 5 6 7 10 12 15
18 18 18 18 19 19 19 19 19 19 19 19 19 20 20 19 19 19 17 11 6 4 3 2 3 2 3 3 4 6 5 5 4 3 2 2 3 3 5 6 4 9 11
17 17 17 18 19 19 19 20 19 19 19 19 18 19 19 18 19 20 19 17 13 10 9 7 6 5 5 4 4 5 4 4 4 4 2 2 3 2 4 3 4 3 5
17 16 17 17 18 18 18 19 19 19 19 18 17 17 18 17 15 17 18 18 16 14 12 12 11 9 6 6 5 5 4 4 4 4 3 3 2 2 3 4 4 3 3
16 17 17 17 17 17 18 18 18 19 19 18 16 16 17 16 13 14 14 15 16 16 15 14 15 17 16 8 5 4 4 3 3 4 4 3 2 2 2 2 3 4 4
15 16 17 17 17 16 17 18 18 18 18 18 16 16 16 15 21 20 14 10 12 13 13 13 13 16 18 20 20 17 13 7 3 2 2 4 3 2 2 2 4 4 3
14 15 16 17 17 17 18 18 17 16 16 17 15 16 16 19 28 21 18 10 10 11 12 11 11 13 16 13 17 20 20 22 17 5 4 4 3 2 2 3 3 3 3
13 14 15 16 17 17 16 16 15 13 13 13 13 15 15 19 28 24 15 9 8 10 11 11 11 11 12 13 12 13 13 14 14 12 10 9 8 7 6 3 4 7 6
14 14 14 14 15 15 15 15 13 11 10 12 11 13 15 18 25 25 15 7 7 9 10 10 9 9 16 16 12 11 11 12 19 23 24 22 23 20 12 5 4 4 3
14 14 14 13 15 13 14 14 14 12 13 13 13 12 13 14 22 24 18 5 7 7 8 10 14 15 19 18 11 9 10 9 10 13 16 18 17 18 20 12 7 5 4
15 14 14 14 14 11 11 12 13 14 14 13 13 13 12 16 20 24 21 7 5 5 6 7 8 19 20 19 15 10 11 10 10 11 11 11 11 11 12 11 10 7 6
14 15 14 13 13 13 11 11 11 12 12 11 11 12 12 13 18 21 21 14 7 4 3 4 8 19 20 19 15 15 16 13 8 9 10 10 10 9 9 9 12 13 12
14 14 14 14 12 11 10 10 10 9 10 10 10 11 12 12 15 23 18 16 11 3 1 7 13 17 16 14 17 18 14 9 8 9 9 8 8 7 7 7 8 9 12
15 15 14 12 12 10 11 10 9 9 10 10 10 11 11 11 12 10 8 9 10 4 5 11 16 17 14 13 13 11 9 9 8 8 7 7 6 7 8 7 6 5 5
15 15 14 13 12 10 10 9 11 8 11 11 6 8 10 10 13 18 13 11 8 7 8 7 7 7 7 7 7 8 8 8 8 7 7 7 7 7 7 7 6 6 5
15 15 13 13 12 12 11 12 15 15 19 18 15 13 12 15 17 18 19 18 18 17 11 8 8 7 7 6 6 6 6 6 6 6 6 6 5 5 5 5 5 5 5
16 16 14 14 13 14 14 13 12 12 15 16 16 15 15 16 16 16 15 15 16 15 9 7 6 6 5 4 4 3 3 3 3 3 3 3 3 3 3 4 4 4 4
16 18 17 13 13 13 13 12 10 9 9 9 12 14 14 13 13 13 13 11 8 8 5 5 4 4 4 4 4 3 3 2 2 2 2 2 2 2 2 2 2 2 2
16 14 14 13 12 12 12 11 9 7 7 7 7 8 10 10 9 9 8 4 3 3 4 3 3 3 2 3 3 3 3 2 2 2 1 1 1 1 1 2 2 3 2
13 21 19 13 12 12 11 11 9 8 7 6 6 6 5 4 2 3 3 2 2 2 3 3 3 3 3 2 2 2 2 3 2 2 2 3 2 2 3 3 3 2 2
11 14 21 15 11 11 11 11 10 8 6 6 5 7 10 4 2 2 2 2 3 3 4 4 4 4 4 3 3 3 3 4 4 4 4 4 3 3 4 4 4 4 4
11 12 12 12 13 13 13 11 10 8 6 5 4 5 9 4 1 2 3 3 4 4 4 4 4 4 4 4 4 4 4 5 5 5 5 5 5 5 5 4 5 5 5
11 12 13 13 13 18 16 12 11 9 6 3 3 3 3 3 3 3 3 4 4 4 5 5 4 4 6 7 7 5 5 6 6 6 6 6 6 6 6 6 7 7 7
11 13 14 14 13 13 13 12 11 11 8 4 3 2 2 2 3 4 4 4 4 4 6 6 5 6 8 9 9 10 11 13 13 11 10 9 9 8 8 8 9 10 9
11 13 13 13 13 12 12 12 12 11 10 8 6 4 3 3 3 4 4 4 4 4 6 7 6 7 9 11 12 13 14 16 17 15 13 10 11 11 11 11 11 10 10
12 13 12 11 11 10 10 11 11 11 10 9 7 5 4 4 4 4 4 4 4 4 6 7 8 10 12 13 14 15 18 18 18 14 7 3 5 6 8 8 10 11 11
Wind_Direction
341 339 338 337 338 337 336 334 332 329 329 330 334 335 335 337 335 329 316 296 282 275 270 200 164 159 153 134 129 124 119 126 144 177 123 116 130 147 148 148 152 149 154
340 339 339 338 339 339 337 335 334 331 332 332 337 340 345 355 357 353 347 341 341 3 15 47 67 75 87 109 120 124 129 125 133 151 138 97 97 151 147 149 150 158 158
341 340 339 339 339 338 337 335 336 335 335 336 343 345 347 358 11 10 7 5 12 22 26 34 49 72 67 64 76 94 107 118 122 136 134 87 78 86 124 122 131 133 162
341 340 340 339 337 335 336 337 338 338 339 340 346 348 349 351 13 19 14 12 13 18 23 28 34 43 58 65 67 70 87 107 125 131 128 110 93 63 118 134 125 105 100
340 340 340 338 336 337 338 341 341 342 342 342 346 352 352 350 12 32 21 15 14 17 20 24 30 32 36 54 75 67 78 96 124 141 139 132 114 91 111 123 133 115 65
337 337 338 339 340 340 341 344 344 343 343 345 348 351 353 352 7 27 33 21 21 21 20 20 26 31 28 38 54 58 60 62 77 109 124 128 102 80 60 88 130 136 132
335 335 338 339 341 341 345 346 344 342 343 346 349 352 351 349 360 13 28 31 28 28 26 24 29 32 37 37 42 43 43 45 47 55 72 86 98 73 78 77 73 91 102
335 335 337 338 339 340 345 345 342 338 341 343 342 348 349 350 355 6 23 27 27 25 23 26 32 36 49 53 51 48 44 46 54 54 57 56 67 67 62 72 96 101 86
337 336 335 335 336 339 344 342 341 338 341 342 343 346 350 349 353 1 18 5 19 20 17 20 37 46 60 62 58 54 47 42 54 63 63 57 55 55 54 57 62 104 100
336 333 331 333 335 336 341 339 341 343 346 347 347 346 348 345 351 356 15 15 21 20 18 13 38 64 68 65 59 59 59 54 59 60 59 55 51 49 51 47 43 58 84
330 330 330 330 326 333 337 334 337 343 344 346 346 345 344 347 351 351 360 21 39 38 34 23 39 67 64 60 59 60 77 75 65 64 61 55 50 45 43 45 47 52 73
323 324 324 324 323 332 330 328 332 336 339 339 343 345 344 343 346 344 354 11 51 65 49 36 61 68 64 62 59 58 65 66 62 62 59 53 48 42 39 44 57 66 72
318 316 315 317 317 316 319 322 325 329 333 335 344 345 341 340 339 343 358 9 17 48 44 104 90 75 65 56 58 61 58 56 60 63 61 54 47 42 37 43 49 70 72
315 313 311 311 308 306 313 319 319 318 319 327 342 340 335 335 336 348 2 3 5 44 59 84 82 78 73 65 60 56 55 64 65 61 61 54 48 47 43 37 38 40 68
311 310 311 309 303 300 300 303 308 302 307 322 329 330 334 336 351 15 26 21 25 77 83 73 66 65 63 62 63 61 57 55 58 54 52 51 47 46 43 37 38 41 54
311 312 311 310 308 308 307 304 302 308 318 322 323 330 337 347 4 21 24 29 45 58 62 56 55 54 53 52 55 56 54 55 54 57 57 53 48 44 45 40 47 46 52
309 311 311 312 311 310 307 305 302 306 315 322 324 327 335 351 11 25 31 34 42 51 55 50 42 35 31 30 32 38 43 49 50 50 51 37 33 36 42 45 42 39 39
312 314 317 311 308 307 307 307 302 303 315 318 322 325 330 344 5 27 39 40 32 37 37 39 32 24 18 12 8 8 12 20 36 40 34 20 13 8 16 28 32 27 16
318 318 317 318 322 324 323 320 312 303 303 305 309 318 328 337 348 8 34 42 19 6 2 1 358 354 354 358 356 356 351 341 343 339 318 307 299 286 301 319 320 325 351
319 326 338 337 332 328 324 318 311 301 293 288 290 296 303 312 309 325 351 350 355 336 324 318 314 313 312 309 306 312 314 304 302 286 278 280 274 256 256 265 265 264 260
328 335 340 335 325 322 317 314 313 305 292 281 273 280 290 286 255 241 279 300 303 302 301 296 290 292 293 287 275 267 266 269 265 256 255 257 253 248 248 250 255 255 257
340 334 334 333 334 335 340 337 327 315 303 293 280 291 314 347 343 273 275 281 282 279 276 279 280 274 266 263 264 266 263 260 256 249 247 247 244 243 242 241 243 245 250
338 340 341 341 343 352 358 354 351 345 330 308 292 287 294 305 304 295 286 290 292 288 291 282 273 273 279 270 254 237 244 253 251 241 238 242 241 240 238 239 241 244 246
344 345 344 345 352 359 358 356 355 357 359 352 335 312 284 278 289 298 300 298 295 295 296 288 271 270 281 285 279 268 259 260 260 251 239 239 241 242 239 240 242 242 245
346 345 345 350 356 359 357 358 0 5 8 11 9 360 337 303 298 303 306 301 298 293 299 299 289 286 289 290 289 287 288 288 283 271 250 241 244 241 242 242 245 246 244
346 343 341 349 357 358 357 355 356 359 4 6 4 355 340 323 311 307 306 303 300 293 296 299 295 294 294 293 293 296 300 301 300 304 313 286 266 256 247 244 242 243 243
Height
1505 1499 1492 1485 1478 1471 1464 1456 1449 1443 1438 1432 1426 1419 1412 1405 1398 1392 1387 1385 1384 1384 1384 1385 1386 1389 1391 1394 1397 1401 1406 1411 1416 1421 1425 1428 1431 1435 1439 1443 1448 1451 1455
1504 1497 1490 1484 1476 1469 1462 1454 1448 1441 1436 1430 1425 1418 1411 1404 1396 1389 1385 1382 1382 1381 1381 1380 1381 1383 1385 1389 1393 1397 1401 1406 1412 1417 1422 1425 1429 1433 1436 1440 1445 1449 1452
1502 1495 1488 1481 1474 1467 1460 1453 1447 1440 1434 1429 1423 1418 1411 1405 1397 1390 1386 1383 1381 1380 1379 1377 1377 1379 1381 1385 1389 1393 1398 1402 1408 1413 1418 1422 1426 1430 1433 1438 1442 1446 1450
1500 1493 1486 1479 1473 1466 1460 1453 1446 1440 1434 1428 1423 1418 1412 1407 1401 1395 1390 1385 1382 1380 1378 1377 1376 1377 1379 1383 1386 1390 1394 1399 1404 1408 1413 1418 1422 1426 1430 1434 1438 1442 1446
1498 1491 1484 1477 1471 1465 1458 1452 1446 1440 1434 1428 1424 1419 1414 1409 1405 1399 1394 1390 1386 1382 1380 1378 1377 1377 1379 1382 1385 1388 1391 1395 1399 1403 1408 1412 1417 1421 1425 1429 1433 1437 1442
1497 1490 1483 1477 1470 1463 1457 1451 1445 1439 1434 1429 1424 1420 1415 1411 1408 1403 1397 1393 1390 1386 1384 1382 1379 1379 1380 1382 1384 1386 1389 1392 1395 1399 1403 1407 1411 1415 1420 1424 1428 1432 1435
1496 1489 1483 1476 1470 1463 1457 1451 1445 1439 1434 1429 1425 1421 1416 1412 1409 1405 1401 1396 1393 1389 1386 1384 1382 1381 1381 1382 1384 1386 1388 1390 1392 1395 1399 1402 1406 1410 1414 1418 1422 1426 1430
1495 1489 1483 1476 1470 1463 1457 1451 1445 1440 1435 1431 1426 1422 1418 1413 1410 1407 1403 1399 1396 1393 1390 1388 1386 1384 1384 1385 1386 1388 1389 1390 1391 1393 1396 1399 1402 1405 1410 1414 1417 1421 1426
1494 1489 1483 1477 1470 1464 1458 1452 1446 1441 1436 1432 1428 1423 1419 1415 1411 1408 1404 1401 1399 1397 1395 1393 1391 1389 1388 1388 1389 1390 1391 1392 1392 1394 1396 1398 1399 1402 1405 1409 1412 1417 1420
1494 1489 1483 1477 1471 1466 1460 1454 1448 1443 1438 1434 1429 1425 1421 1416 1412 1410 1407 1403 1401 1399 1398 1397 1396 1394 1392 1391 1391 1392 1393 1394 1394 1395 1396 1397 1399 1401 1403 1406 1408 1412 1415
1494 1489 1483 1477 1471 1466 1461 1455 1450 1444 1439 1434 1430 1426 1421 1417 1413 1410 1408 1406 1403 1402 1400 1400 1399 1398 1396 1396 1395 1394 1394 1395 1395 1396 1397 1398 1400 1402 1403 1405 1407 1410 1413
1493 1488 1482 1476 1471 1465 1459 1454 1450 1445 1439 1435 1430 1425 1421 1418 1414 1411 1409 1407 1405 1404 1403 1402 1402 1401 1400 1399 1398 1397 1397 1397 1397 1398 1399 1401 1402 1404 1405 1405 1407 1409 1412
1491 1486 1480 1475 1470 1464 1458 1453 1448 1444 1440 1436 1431 1427 1422 1418 1415 1411 1408 1407 1405 1404 1404 1403 1402 1401 1401 1401 1400 1400 1400 1400 1400 1400 1401 1402 1404 1405 1406 1406 1408 1410 1412
1489 1482 1476 1471 1466 1462 1457 1452 1447 1443 1439 1436 1433 1428 1424 1420 1416 1413 1410 1407 1405 1404 1404 1403 1402 1403 1403 1403 1403 1402 1402 1402 1402 1402 1402 1404 1405 1406 1406 1407 1408 1410 1412
1486 1479 1473 1468 1462 1457 1454 1450 1446 1442 1440 1437 1433 1430 1426 1422 1419 1416 1412 1408 1405 1403 1403 1403 1404 1405 1405 1405 1404 1404 1403 1403 1403 1403 1404 1405 1406 1406 1406 1407 1408 1410 1411
1483 1476 1470 1464 1458 1453 1449 1444 1442 1440 1437 1434 1432 1430 1427 1424 1420 1417 1414 1412 1409 1407 1406 1405 1406 1407 1407 1406 1406 1405 1405 1404 1404 1405 1405 1405 1406 1406 1406 1406 1407 1408 1409
1481 1474 1467 1461 1455 1450 1445 1441 1436 1433 1432 1430 1428 1427 1426 1424 1421 1418 1415 1413 1411 1409 1408 1408 1408 1408 1408 1408 1407 1407 1406 1406 1405 1405 1405 1405 1405 1405 1405 1405 1406 1407 1407
1479 1472 1465 1459 1453 1447 1443 1438 1434 1430 1427 1424 1424 1424 1423 1423 1422 1420 1417 1415 1413 1412 1411 1410 1410 1409 1409 1408 1407 1407 1406 1406 1406 1405 1405 1405 1405 1405 1405 1404 1405 1405 1406
1478 1471 1464 1458 1452 1446 1441 1436 1432 1428 1425 1422 1421 1421 1421 1421 1421 1420 1419 1417 1416 1414 1413 1412 1411 1410 1409 1408 1407 1406 1406 1405 1405 1405 1404 1404 1403 1403 1403 1403 1403 1403 1404
1478 1471 1465 1458 1451 1444 1438 1433 1429 1426 1423 1420 1419 1418 1418 1419 1420 1420 1419 1418 1417 1416 1415 1414 1412 1411 1409 1407 1406 1405 1405 1404 1403 1403 1402 1401 1401 1400 1400 1400 1401 1401 1401
1478 1471 1464 1456 1449 1443 1437 1432 1427 1423 1420 1418 1417 1416 1417 1418 1418 1418 1418 1418 1417 1417 1415 1414 1412 1410 1408 1406 1405 1404 1403 1402 1401 1401 1400 1399 1399 1398 1398 1398 1398 1398 1398
1480 1472 1465 1457 1450 1443 1437 1431 1426 1422 1419 1417 1416 1415 1415 1415 1416 1416 1417 1417 1417 1416 1414 1413 1411 1409 1407 1405 1403 1402 1400 1400 1399 1398 1397 1397 1396 1396 1395 1395 1395 1395 1395
1482 1474 1467 1459 1452 1445 1437 1431 1426 1423 1419 1417 1416 1415 1414 1414 1415 1415 1415 1416 1415 1414 1413 1412 1410 1408 1405 1403 1401 1400 1398 1397 1396 1395 1394 1394 1393 1392 1392 1392 1392 1392 1392
1484 1476 1468 1461 1455 1447 1440 1434 1429 1425 1422 1419 1417 1416 1415 1414 1414 1414 1414 1414 1414 1413 1412 1410 1408 1406 1404 1402 1400 1398 1397 1395 1394 1392 1391 1390 1389 1389 1388 1388 1387 1387 1387
1487 1479 1471 1465 1458 1452 1445 1439 1434 1429 1425 1422 1420 1418 1417 1416 1415 1414 1414 1413 1412 1411 1410 1408 1406 1404 1402 1400 1399 1397 1395 1393 1391 1389 1387 1385 1383 1382 1381 1381 1380 1380 1380
1489 1482 1475 1469 1462 1456 1450 1444 1438 1434 1430 1426 1424 1421 1419 1417 1416 1414 1413 1412 1411 1409 1408 1406 1404 1402 1400 1399 1397 1395 1393 1390 1388 1386 1383 1380 1378 1376 1374 1374 1373 1373 1373